User: anonymous   Login
Location: Cicognara
(44.9500°N, 10.4667°E)
Time: 22:09:15
(UTC+00:00)
Language:

Lacrosse 4 Rocket - Orbit

View from above orbital plane
View from above orbital plane
View from above satellite
View from above satellite

Ground track
Ground track

The orbit data is extracted from the following two-line orbital elements,

1 26474U 00047B   21267.02526217  .00000363  00000-0  42136-4 0  9999
2 26474  67.9924 239.4330 0052434  43.9389 316.5904 14.96224365148665
Epoch (UTC): 24 September 2021 00:36:22
Eccentricity: 0.0052434
inclination: 67.9924°
perigee height: 542 km
apogee height: 615 km
right ascension of ascending node: 239.4330°
argument of perigee: 43.9389°
revolutions per day: 14.96224365
mean anomaly at epoch: 316.5904°
orbit number at epoch: 14866

The dashed part of the orbit path shows where the satellite is in the earth's shadow,  

DLR